EW5922 Weather Reports


time (UTC)temp
C
wind
direction
speed
KPH
gust
KPH
rain 1hr
cm
rain 24hr
cm
rain mn
cm
humidity
%
barometer
mb
20260506223945 19 252 1.6 6.4 0.00 0.13 0.13 81 1007.8
20260506223433 20 275 0.0 6.4 0.00 0.13 0.13 81 1007.7
20260506222933 20 235 0.0 9.7 0.00 0.13 0.13 81 1007.7
20260506222434 20 298 1.6 9.7 0.00 0.13 0.13 81 1007.7
20260506221922 20 117 1.6 9.7 0.00 0.13 0.13 81 1007.7
20260506221422 20 237 3.2 9.7 0.00 0.13 0.13 81 1007.6
20260506220921 19 251 0.0 9.7 0.00 0.13 0.13 82 1007.6
20260506215922 19 244 6.4 14.5 0.00 0.13 0.13 81 1007.5
20260506215422 19 175 0.0 14.5 0.00 0.13 0.13 82 1007.4
20260506214411 19 205 0.0 11.3 0.00 0.13 0.13 82 1007.6
20260506213910 19 226 0.0 9.7 0.00 0.13 0.13 82 1007.5
20260506213411 19 247 3.2 12.9 0.00 0.13 0.13 82 1007.4
20260506212857 19 255 4.8 12.9 0.00 0.13 0.13 82 1007.3
20260506212358 19 272 1.6 14.5 0.00 0.13 0.13 82 1007.1
20260506211858 19 195 1.6 14.5 0.00 0.13 0.13 82 1007.4
20260506211345 19 44 1.6 16.1 0.00 0.13 0.13 82 1007.2
20260506210846 19 260 3.2 16.1 0.00 0.13 0.13 82 1007.0
20260506210345 19 327 3.2 14.5 0.00 0.13 0.13 82 1007.1
20260506205832 19 274 1.6 14.5 0.00 0.13 0.13 83 1007.1
20260506205333 19 253 3.2 9.7 0.00 0.13 0.13 83 1007.2
20260506204831 19 212 0.0 6.4 0.00 0.13 0.13 83 1006.9
20260506204321 19 244 3.2 6.4 0.00 0.13 0.13 83 1007.2
20260506203820 19 148 1.6 9.7 0.00 0.13 0.13 84 1006.9
20260506203320 18 256 1.6 9.7 0.00 0.13 0.13 84 1006.8
20260506202320 18 260 3.2 6.4 0.00 0.13 0.13 85 1007.1
20260506201820 18 253 1.6 6.4 0.00 0.13 0.13 85 1007.1
20260506201320 18 251 0.0 11.3 0.00 0.13 0.13 86 1007.4
20260506200820 18 245 4.8 11.3 0.00 0.13 0.13 85 1007.2
20260506200320 18 219 1.6 9.7 0.00 0.13 0.13 86 1007.5
20260506195820 18 239 4.8 11.3 0.00 0.13 0.13 86 1007.5
20260506195320 18 218 1.6 11.3 0.00 0.13 0.13 86 1007.6
20260506194821 18 276 4.8 9.7 0.00 0.13 0.13 87 1007.7
20260506194321 18 240 1.6 4.8 0.00 0.13 0.13 88 1007.5
20260506193822 18 232 0.0 4.8 0.00 0.13 0.13 88 1007.6
20260506192820 17 260 1.6 6.4 0.00 0.13 0.13 89 1007.5
20260506192320 17 248 3.2 6.4 0.00 0.13 0.13 89 1007.6
20260506191820 17 252 1.6 9.7 0.00 0.13 0.13 89 1007.7
20260506191320 17 247 6.4 9.7 0.00 0.13 0.13 89 1007.7
20260506190821 17 231 6.4 9.7 0.00 0.13 0.13 89 1007.6
20260506190321 17 222 3.2 12.9 0.00 0.13 0.13 89 1008.0
20260506185820 17 259 6.4 12.9 0.00 0.13 0.13 89 1007.6
20260506185320 17 99 1.6 9.7 0.00 0.13 0.13 89 1008.0
20260506184820 17 215 4.8 11.3 0.00 0.13 0.13 89 1007.7
20260506184320 17 215 3.2 11.3 0.00 0.13 0.13 88 1008.0
20260506183821 18 290 0.0 9.7 0.00 0.13 0.13 88 1008.2
20260506183321 18 273 3.2 16.1 0.00 0.13 0.13 87 1008.1
20260506182822 18 249 1.6 16.1 0.00 0.13 0.13 86 1008.0
20260506182321 19 237 1.6 17.7 0.00 0.13 0.13 83 1008.0
20260506181821 20 324 8.0 17.7 0.00 0.13 0.13 80 1007.9
20260506181322 19 179 4.8 12.9 0.00 0.13 0.13 80 1008.1
20260506180822 19 272 1.6 9.7 0.00 0.13 0.13 81 1008.2
20260506180321 19 230 0.0 6.4 0.03 0.13 0.13 81 1007.8
20260506175819 19 158 1.6 6.4 0.03 0.13 0.13 82 1008.1
20260506175319 18 255 3.2 6.4 0.03 0.13 0.13 83 1008.0
20260506174819 18 241 0.0 6.4 0.03 0.13 0.13 84 1008.1
20260506174319 18 127 1.6 6.4 0.05 0.13 0.13 86 1008.0
20260506173819 18 257 0.0 6.4 0.05 0.13 0.13 89 1007.9
20260506172819 18 24 0.0 3.2 0.08 0.13 0.13 90 1008.1
20260506172319 18 236 1.6 3.2 0.08 0.13 0.13 90 1008.2
20260506171819 18 243 1.6 11.3 0.10 0.13 0.13 91 1008.2
20260506171319 17 260 0.0 11.3 0.10 0.13 0.13 90 1008.2
20260506170819 17 286 0.0 4.8 0.13 0.13 0.13 91 1008.4
20260506170319 17 270 0.0 4.8 0.10 0.10 0.10 91 1008.6
20260506165819 17 358 0.0 4.8 0.10 0.10 0.10 90 1008.9
20260506165319 17 209 1.6 3.2 0.10 0.10 0.10 89 1009.2
20260506164819 18 232 0.0 4.8 0.10 0.10 0.10 89 1009.5
20260506164319 17 214 1.6 4.8 0.08 0.08 0.08 88 1009.7
20260506163819 17 253 3.2 6.4 0.08 0.08 0.08 87 1009.5
20260506163318 18 279 1.6 6.4 0.05 0.05 0.05 87 1009.4
20260506162818 18 187 1.6 3.2 0.05 0.05 0.05 86 1009.6
20260506162318 18 260 3.2 6.4 0.05 0.05 0.05 85 1009.4
20260506161818 18 230 0.0 6.4 0.03 0.03 0.03 83 1009.8
20260506161318 19 179 1.6 11.3 0.03 0.03 0.03 80 1009.8
20260506160819 19 246 3.2 12.9 0.00 0.00 0.00 77 1009.7
20260506155808 21 152 1.6 11.3 0.00 0.00 0.00 71 1010.0
20260506155308 21 33 1.6 12.9 0.00 0.00 0.00 68 1009.6
20260506154805 21 191 3.2 12.9 0.00 0.00 0.00 67 1009.8
20260506153806 22 271 11.3 14.5 0.00 0.00 0.00 65 1009.7
20260506152807 22 356 1.6 14.5 0.00 0.00 0.00 65 1009.4
20260506152307 21 261 6.4 11.3 0.00 0.00 0.00 66 1009.5
20260506151807 21 194 6.4 14.5 0.00 0.00 0.00 66 1009.7
20260506151307 21 244 3.2 14.5 0.00 0.00 0.00 66 1009.7
20260506150807 21 136 3.2 12.9 0.00 0.00 0.00 66 1009.8
20260506145807 22 247 8.0 22.5 0.00 0.00 0.00 65 1009.7
20260506145307 22 333 4.8 22.5 0.00 0.00 0.00 65 1009.8
20260506144807 22 249 3.2 17.7 0.00 0.00 0.00 65 1010.0
20260506144308 22 359 3.2 11.3 0.00 0.00 0.00 64 1010.1
20260506143306 22 221 3.2 14.5 0.00 0.00 0.00 65 1009.8
20260506142806 22 247 9.7 14.5 0.00 0.00 0.00 64 1009.8
20260506142306 22 226 1.6 9.7 0.00 0.00 0.00 66 1009.6
20260506141806 21 169 1.6 12.9 0.00 0.00 0.00 66 1009.8
20260506140307 21 265 3.2 20.9 0.00 0.00 0.00 67 1009.9
20260506135808 21 265 8.0 14.5 0.00 0.00 0.00 67 1009.9
20260506135307 21 196 4.8 11.3 0.00 0.00 0.00 67 1009.7
20260506134807 21 220 1.6 14.5 0.00 0.00 0.00 67 1009.3
20260506134308 21 255 3.2 14.5 0.00 0.00 0.00 67 1009.7
20260506133306 21 236 3.2 12.9 0.00 0.00 0.00 67 1010.0
20260506132806 21 244 6.4 12.9 0.00 0.00 0.00 68 1009.9
20260506131806 21 223 3.2 17.7 0.00 0.00 0.00 68 1009.9
20260506131306 21 123 6.4 17.7 0.00 0.00 0.00 69 1010.1
20260506130806 21 306 1.6 11.3 0.00 0.00 0.00 70 1009.9
20260506125806 20 301 3.2 14.5 0.00 0.00 0.00 71 1009.7
20260506125307 20 179 3.2 14.5 0.00 0.00 0.00 71 1009.9
20260506124306 20 238 3.2 12.9 0.00 0.00 0.00 71 1009.8
20260506123806 20 263 8.0 12.9 0.00 0.00 0.00 71 1010.0
20260506123307 20 306 1.6 9.7 0.00 0.00 0.00 72 1010.0
20260506122806 19 291 1.6 11.3 0.00 0.00 0.00 74 1009.8
20260506122306 19 171 1.6 9.7 0.00 0.00 0.00 74 1009.8
20260506121306 19 67 3.2 11.3 0.00 0.00 0.00 74 1010.2
20260506120807 19 231 1.6 9.7 0.00 0.00 0.00 74 1010.1
20260506120307 19 330 1.6 11.3 0.00 0.00 0.00 75 1010.1
20260506114754 19 246 3.2 11.3 0.00 0.00 0.00 75 1010.1
20260506114254 19 225 4.8 9.7 0.00 0.00 0.00 76 1010.6
20260506113755 19 75 1.6 9.7 0.00 0.00 0.00 76 1010.1
20260506113242 19 73 3.2 9.7 0.00 0.00 0.00 76 1010.0
20260506112741 19 244 3.2 6.4 0.00 0.00 0.00 76 1010.4
20260506112241 18 277 1.6 6.4 0.00 0.00 0.00 77 1010.3
20260506111729 18 339 3.2 6.4 0.00 0.00 0.00 78 1010.3
20260506111229 18 229 4.8 12.9 0.00 0.00 0.00 78 1010.4
20260506110217 18 85 1.6 12.9 0.00 0.00 0.00 79 1010.0
20260506105718 18 238 3.2 14.5 0.00 0.00 0.00 79 1010.1
20260506105217 17 269 1.6 14.5 0.00 0.00 0.00 80 1010.1
20260506104717 17 315 3.2 6.4 0.00 0.00 0.00 81 1010.2
20260506104218 17 10 1.6 4.8 0.00 0.00 0.00 81 1010.0
20260506103718 17 260 0.0 6.4 0.00 0.00 0.00 81 1010.2
20260506103217 17 243 0.0 9.7 0.00 0.00 0.00 81 1010.0
20260506102217 17 59 0.0 6.4 0.00 0.00 0.00 81 1010.2
20260506101717 17 329 3.2 9.7 0.00 0.00 0.00 81 1010.0
20260506100717 17 179 3.2 11.3 0.00 0.00 0.00 81 1009.9
20260506100217 17 277 1.6 6.4 0.00 0.00 0.00 81 1009.9
20260506095217 17 217 3.2 9.7 0.00 0.00 0.00 81 1009.8
20260506094705 17 260 3.2 9.7 0.00 0.00 0.00 81 1010.1
20260506094204 17 320 1.6 11.3 0.00 0.00 0.00 81 1009.8
20260506093705 17 8 1.6 11.3 0.00 0.00 0.00 81 1009.7
20260506093206 17 338 1.6 4.8 0.00 0.00 0.00 81 1009.6
20260506092705 17 193 3.2 4.8 0.00 0.00 0.00 82 1010.0
20260506092205 17 22 3.2 4.8 0.00 0.00 0.00 82 1009.8
20260506091705 17 349 0.0 4.8 0.00 0.00 0.00 81 1009.8
20260506090707 17 30 4.8 6.4 0.00 0.00 0.00 81 1009.9
20260506085704 17 357 1.6 9.7 0.00 0.00 0.00 81 1009.9
20260506085205 17 182 3.2 9.7 0.00 0.00 0.00 81 1010.0
20260506084706 17 123 1.6 4.8 0.00 0.00 0.00 81 1009.8
20260506083705 17 245 0.0 4.8 0.00 0.00 0.00 81 1010.1
20260506083205 17 107 1.6 4.8 0.00 0.00 0.00 81 1010.0
20260506082705 17 301 1.6 12.9 0.00 0.00 0.00 81 1010.0
20260506082205 17 184 6.4 12.9 0.00 0.00 0.00 81 1010.3
20260506081706 17 231 1.6 14.5 0.00 0.00 0.00 80 1010.1
20260506081207 17 203 1.6 14.5 0.00 0.00 0.00 80 1010.3
20260506080707 17 156 1.6 4.8 0.00 0.00 0.00 80 1010.1
20260506080207 17 186 1.6 9.7 0.00 0.00 0.00 80 1010.1
20260506072705 18 42 1.6 11.3 0.00 0.00 0.00 79 1010.3
20260506071705 18 211 0.0 6.4 0.00 0.00 0.00 79 1010.4
20260506071206 18 27 1.6 3.2 0.00 0.00 0.00 79 1010.4
20260506070706 18 239 0.0 6.4 0.00 0.00 0.00 78 1010.3
20260506070206 18 218 0.0 6.4 0.00 0.00 0.00 77 1010.4
20260506062206 18 207 1.6 4.8 0.00 0.00 0.00 76 1010.5
20260506061706 18 299 0.0 3.2 0.00 0.00 0.00 76 1010.4
20260506061206 18 247 0.0 4.8 0.00 0.00 0.00 76 1010.4
20260506060705 18 98 3.2 4.8 0.00 0.00 0.00 76 1010.3
20260506060205 18 310 1.6 6.4 0.00 0.00 0.00 75 1010.2
20260506051130 19 158 1.6 9.7 0.00 0.00 0.00 73 1010.8
20260506050118 19 278 0.0 16.1 0.00 0.00 0.00 72 1010.7
20260506045118 19 253 1.6 11.3 0.00 0.00 0.00 71 1010.8
20260506044618 20 183 1.6 11.3 0.00 0.00 0.00 71 1010.8
20260506044117 19 249 0.0 6.4 0.00 0.00 0.00 71 1010.8
20260506043617 20 207 3.2 11.3 0.00 0.00 0.00 70 1011.1
20260506042618 20 56 1.6 11.3 0.00 0.00 0.00 69 1011.0
20260506042119 20 253 3.2 9.7 0.00 0.00 0.00 70 1010.7
20260506041618 20 9 1.6 9.7 0.00 0.00 0.00 69 1010.9
20260506041118 20 207 3.2 6.4 0.00 0.00 0.00 69 1010.8
20260506040118 20 137 1.6 14.5 0.00 0.00 0.00 68 1010.9
20260506035619 20 249 3.2 14.5 0.00 0.00 0.00 68 1010.6
20260506035118 20 311 1.6 11.3 0.00 0.00 0.00 68 1010.7
20260506034618 20 2 1.6 6.4 0.00 0.00 0.00 67 1011.1
20260506034119 20 325 1.6 12.9 0.00 0.00 0.00 67 1010.9
20260506033618 20 109 1.6 12.9 0.00 0.00 0.00 66 1010.7
20260506033118 20 105 3.2 11.3 0.00 0.00 0.00 66 1010.9
20260506032618 20 272 4.8 9.7 0.00 0.00 0.00 66 1010.6
20260506032117 20 336 1.6 12.9 0.00 0.00 0.00 65 1010.8
20260506031617 20 313 3.2 12.9 0.00 0.00 0.00 64 1010.8
20260506030617 21 257 6.4 12.9 0.00 0.00 0.00 63 1010.5
20260506030117 21 325 3.2 11.3 0.00 0.00 0.00 63 1010.6
20260506025619 21 11 1.6 11.3 0.00 0.00 0.00 62 1011.2
20260506025119 21 160 1.6 11.3 0.00 0.00 0.00 61 1010.7
20260506024118 21 289 1.6 9.7 0.00 0.00 0.00 61 1010.9
20260506023618 21 151 1.6 9.7 0.00 0.00 0.00 61 1010.8
20260506023117 21 328 3.2 11.3 0.00 0.00 0.00 60 1010.8
20260506022617 21 179 1.6 11.3 0.00 0.00 0.00 60 1010.7
20260506020618 21 116 3.2 12.9 0.00 0.00 0.00 60 1010.7
20260506020118 21 333 1.6 9.7 0.00 0.00 0.00 60 1010.9
20260506015618 21 154 3.2 11.3 0.00 0.00 0.00 60 1010.4
20260506015118 21 36 4.8 11.3 0.00 0.00 0.00 60 1010.5
20260506014617 21 211 1.6 11.3 0.00 0.00 0.00 59 1010.4
20260506014117 22 105 1.6 16.1 0.00 0.00 0.00 59 1010.5
20260506013617 22 309 8.0 20.9 0.00 0.00 0.00 59 1010.7
20260506013117 22 82 4.8 20.9 0.00 0.00 0.00 59 1010.4
20260506012617 22 59 0.0 6.4 0.00 0.00 0.00 58 1010.6
20260506011106 22 165 3.2 11.3 0.00 0.00 0.00 58 1010.2
20260506010606 22 164 3.2 12.9 0.00 0.00 0.00 57 1010.1
20260506005606 23 57 3.2 9.7 0.00 0.00 0.00 55 1009.9
20260506005106 23 58 1.6 14.5 0.00 0.00 0.00 53 1009.7
20260506004606 23 192 1.6 14.5 0.00 0.00 0.00 50 1009.5
20260506004106 24 19 1.6 12.9 0.00 0.00 0.00 48 1009.7
20260506002605 24 43 3.2 6.4 0.00 0.00 0.00 46 1009.7
20260506001605 25 77 1.6 12.9 0.00 0.00 0.00 45 1009.4
20260506000606 25 163 1.6 6.4 0.00 0.00 0.00 44 1009.3
20260506000108 25 223 1.6 11.3 0.00 0.00 0.00 43 1009.6
20260505235606 25 306 6.4 11.3 0.00 0.00 0.00 43 1009.1
20260505235105 25 68 6.4 12.9 0.00 0.00 0.00 43 1009.3
20260505233606 26 294 3.2 11.3 0.00 0.00 0.00 42 1009.2
20260505233105 26 35 1.6 16.1 0.00 0.00 0.00 41 1009.1
20260505232605 26 275 6.4 16.1 0.00 0.00 0.00 41 1009.1
20260505231554 26 250 1.6 6.4 0.00 0.00 0.00 39 1008.7
20260505231053 27 250 1.6 14.5 0.00 0.00 0.00 37 1008.5
20260505230553 27 219 3.2 14.5 0.00 0.00 0.00 36 1008.7
20260505225541 27 223 6.4 20.9 0.00 0.00 0.00 34 1008.4
20260505224530 27 221 6.4 20.9 0.00 0.00 0.00 34 1008.4